Satellite: AO-40 Catalog number: 26609 Epoch time: 01347.97658565 Element set: 181 Inclination: 6.6417 deg RA of node: 138.7507 deg Eccentricity: 0.7949656 Arg of perigee: 0.1422 deg Mean anomaly: 359.6437 deg Mean motion: 1.25596892 rev/day Decay rate: -2.15000e-06 rev/day^2 Epoch rev: 516 Checksum: 328